Amateur Radio Satellites - All Passes

Search period start: 23 May 2013 00:24
Search period end: 24 May 2013 00:24
Location: St. Andrews, 45.0670°N, 67.0330°W

Satellite Date Start Highest point End Downlink Frequencies (MHz)
Time Altitude Azimuth
KITSAT 1 23 May 01:02:41 01:10:36 57° 311° (NW) 01:18:36 435.175 FM
MaSat-1 23 May 01:14:35 01:18:51 18° 103° (ESE) 01:22:44 437.345 MHz
RS-15 23 May 01:21:49 01:32:58 63° 46° (NE) 01:43:45 29.354 - 29.394 USB, Beacon 29.352 USB
Oscar 16 23 May 02:21:44 02:25:50 23° 93° (E) 02:29:54 437.025 USB, Beacon 2401.1428
AO-27 23 May 02:31:04 02:34:58 21° 92° (E) 02:38:52 436.795 MHz FM
ITAMSAT 1 23 May 02:37:32 02:41:40 23° 93° (E) 02:45:47 435.822 SSB
ISS 23 May 02:46:20 02:48:23 16° 134° (SE) 02:50:27 145.800 FM
MaSat-1 23 May 02:53:35 03:00:37 89° 118° (ESE) 03:06:18 437.345 MHz
KITSAT 1 23 May 03:02:00 03:07:58 22° 337° (NNW) 03:13:59 435.175 FM
Uribyol 2 23 May 03:17:53 03:23:03 55° 101° (E) 03:28:10 436.500 FM
Oscar 19 23 May 03:20:53 03:26:04 67° 102° (ESE) 03:31:10 437.125 CW, 437.150 USB
AO-Echo 23 May 03:24:20 03:27:55 21° 93° (E) 03:31:33 ?
RS-15 23 May 03:34:48 03:44:51 43° 251° (WSW) 03:54:44 29.354 - 29.394 USB, Beacon 29.352 USB
Oscar 16 23 May 04:00:28 04:05:27 48° 290° (WNW) 04:10:23 437.025 USB, Beacon 2401.1428
AO-27 23 May 04:09:44 04:14:50 55° 290° (WNW) 04:19:55 436.795 MHz FM
TMSAT-1 23 May 04:14:19 04:17:36 16° 89° (E) 04:20:51 436.925 FM
ITAMSAT 1 23 May 04:16:24 04:21:26 49° 291° (WNW) 04:26:27 435.822 SSB
ISS 23 May 04:21:23 04:24:42 82° 332° (NNW) 04:28:03 145.800 FM
Gurwin Techsat 1B 23 May 04:35:06 04:40:00 36° 97° (E) 04:44:52 435.225 FM
MaSat-1 23 May 04:38:33 04:43:15 21° 312° (NW) 04:47:18 437.345 MHz
Uosat F 23 May 04:55:07 05:00:07 65° 102° (ESE) 05:05:07 435.120 FM
Uribyol 2 23 May 04:58:11 05:02:10 22° 299° (WNW) 05:06:08 436.500 FM
Oscar 19 23 May 05:01:25 05:04:53 19° 300° (WNW) 05:08:21 437.125 CW, 437.150 USB
KITSAT 1 23 May 05:02:03 05:06:59 17° 7° (N) 05:11:56 435.175 FM
AO-Echo 23 May 05:02:26 05:06:58 46° 290° (WNW) 05:11:34 ?
STRAND 1 23 May 05:29:33 05:32:35 16° 58° (ENE) 05:35:37 ?
TMSAT-1 23 May 05:52:46 05:58:04 71° 287° (WNW) 06:03:21 436.925 FM
ISS 23 May 05:58:49 06:01:46 28° 350° (N) 06:04:44 145.800 FM
AO-7 23 May 06:07:02 06:15:06 49° 101° (E) 06:23:07 29.400 - 29.500 MHz
Gurwin Techsat 1B 23 May 06:15:13 06:19:55 33° 294° (WNW) 06:24:36 435.225 FM
Saudisat 1A 23 May 06:34:45 06:39:17 67° 122° (ESE) 06:43:52 436.775 MHz
Uosat F 23 May 06:35:03 06:38:27 19° 300° (WNW) 06:41:50 435.120 FM
PCSat 23 May 06:54:30 06:57:26 15° 104° (ESE) 07:00:23 145.825 MHz
KITSAT 1 23 May 06:58:17 07:05:26 32° 36° (NE) 07:12:33 435.175 FM
STRAND 1 23 May 07:06:04 07:11:10 78° 256° (WSW) 07:16:18 ?
Sapphire 23 May 07:25:40 07:30:06 27° 109° (ESE) 07:34:34 437.095 MHz 1200 baud AX-25 AFSK
TMSAT-1 23 May 07:35:23 07:37:04 12° 306° (NW) 07:38:45 436.925 FM
ISS 23 May 07:36:08 07:39:08 29° 11° (N) 07:42:07 145.800 FM
Hamsat 23 May 07:53:17 07:57:02 27° 95° (E) 08:00:46 145.90 MHz
AO-7 23 May 08:00:04 08:07:48 44° 301° (WNW) 08:15:31 29.400 - 29.500 MHz
SO-50 23 May 08:10:42 08:12:35 12° 108° (ESE) 08:14:28 436.795 FM
Saudisat 1A 23 May 08:15:49 08:19:25 22° 322° (NW) 08:23:03 436.775 MHz
SO-67 23 May 08:21:32 08:23:51 16° 92° (E) 08:26:10 435.3500 MHz FM
PCSat 23 May 08:34:42 08:40:07 84° 302° (WNW) 08:45:36 145.825 MHz
KITSAT 1 23 May 08:53:34 09:01:44 82° 240° (WSW) 09:09:51 435.175 FM
Sapphire 23 May 09:07:59 09:13:14 51° 308° (NW) 09:18:33 437.095 MHz 1200 baud AX-25 AFSK
JAS-1B 23 May 09:10:04 09:16:07 58° 101° (E) 09:21:41 435.800 - 435.900 CW/SSB
ISS 23 May 09:12:47 09:16:10 88° 30° (NNE) 09:19:32 145.800 FM
Hamsat 23 May 09:29:16 09:33:06 31° 292° (WNW) 09:36:56 145.90 MHz
HO-68 23 May 09:36:29 09:41:02 18° 89° (E) 09:45:35 435.675 MHz FM
JAS-2 23 May 09:39:44 09:42:39 13° 81° (E) 09:45:27 435.800 - 435.900 CW/SSB, 435.910 FM
SO-50 23 May 09:47:44 09:52:32 89° 125° (SE) 09:57:17 436.795 FM
SO-67 23 May 09:54:10 09:57:27 34° 289° (WNW) 10:00:42 435.3500 MHz FM
AO-7 23 May 09:55:42 09:58:26 12° 324° (NW) 10:01:10 29.400 - 29.500 MHz
Oscar 10/S400 23 May 10:13:47 12:25:25 23° 273° (W) 17:17:46 145.825 - 145.975 CW/USB, Beacon 145.810 USB
PCSat 23 May 10:20:36 10:24:24 19° 323° (NW) 10:28:12 145.825 MHz
ISS 23 May 10:50:32 10:52:28 15° 227° (SW) 10:54:24 145.800 FM
KITSAT 1 23 May 10:50:53 10:55:54 18° 259° (W) 11:00:55 435.175 FM
Sapphire 23 May 10:55:26 10:58:01 13° 330° (NNW) 11:00:35 437.095 MHz 1200 baud AX-25 AFSK
JAS-1B 23 May 11:01:38 11:06:17 23° 303° (WNW) 11:10:38 435.800 - 435.900 CW/SSB
UOSAT-12 23 May 11:08:42 11:11:12 15° 109° (ESE) 11:13:43 437.025 FM, 437.400 FM
JAS-2 23 May 11:22:03 11:29:06 78° 103° (ESE) 11:35:14 435.800 - 435.900 CW/SSB, 435.910 FM
HO-68 23 May 11:22:27 11:29:39 90° 288° (WNW) 11:36:50 435.675 MHz FM
Oscar 11 23 May 11:27:59 11:32:23 84° 103° (ESE) 11:36:45 145.825 FM, Beacon 2401.500 USB
SO-50 23 May 11:30:27 11:33:48 19° 325° (NW) 11:37:08 436.795 FM
MaSat-1 23 May 11:37:37 11:41:03 48° 57° (ENE) 11:43:49 437.345 MHz
OPAL 23 May 12:00:27 12:05:28 68° 105° (ESE) 12:10:23 ?
UOSAT-12 23 May 12:46:17 12:50:48 72° 307° (NW) 12:55:22 437.025 FM, 437.400 FM
Uribyol 2 23 May 13:01:20 13:04:17 16° 57° (ENE) 13:07:16 436.500 FM
Oscar 19 23 May 13:02:51 13:06:15 18° 59° (ENE) 13:09:38 437.125 CW, 437.150 USB
Oscar 11 23 May 13:06:24 13:07:58 12° 301° (WNW) 13:09:31 145.825 FM, Beacon 2401.500 USB
JAS-2 23 May 13:08:07 13:13:16 22° 305° (NW) 13:18:01 435.800 - 435.900 CW/SSB, 435.910 FM
HO-68 23 May 13:11:25 13:16:27 21° 308° (NW) 13:21:30 435.675 MHz FM
Saudisat 1A 23 May 13:21:30 13:24:43 18° 35° (NE) 13:27:53 436.775 MHz
Oscar 16 23 May 13:40:29 13:45:20 41° 68° (ENE) 13:50:13 437.025 USB, Beacon 2401.1428
OPAL 23 May 13:40:30 13:43:51 18° 303° (WNW) 13:47:10 ?
AO-27 23 May 13:51:03 13:55:48 38° 67° (ENE) 14:00:36 436.795 MHz FM
ITAMSAT 1 23 May 13:57:25 14:02:16 42° 68° (ENE) 14:07:10 435.822 SSB
Gurwin Techsat 1B 23 May 14:23:00 14:24:25 11° 54° (NE) 14:25:49 435.225 FM
UOSAT-12 23 May 14:29:05 14:31:48 15° 328° (NNW) 14:34:32 437.025 FM, 437.400 FM
Sapphire 23 May 14:29:36 14:30:38 11° 24° (NNE) 14:31:41 437.095 MHz 1200 baud AX-25 AFSK
Uosat F 23 May 14:34:22 14:37:20 16° 58° (ENE) 14:40:18 435.120 FM
Uribyol 2 23 May 14:37:55 14:43:06 83° 256° (WSW) 14:48:21 436.500 FM
AO-Echo 23 May 14:39:21 14:43:40 34° 68° (ENE) 14:47:56 ?
Oscar 19 23 May 14:39:51 14:45:02 72° 257° (WSW) 14:50:16 437.125 CW, 437.150 USB
Saudisat 1A 23 May 15:00:27 15:05:03 86° 235° (SW) 15:09:31 436.775 MHz
AO-7 23 May 15:19:04 15:24:41 21° 46° (NE) 15:30:19 29.400 - 29.500 MHz
Oscar 16 23 May 15:20:26 15:24:50 28° 266° (W) 15:29:16 437.025 USB, Beacon 2401.1428
AO-27 23 May 15:30:56 15:35:25 29° 265° (W) 15:39:56 436.795 MHz FM
TMSAT-1 23 May 15:36:43 15:41:19 31° 65° (ENE) 15:45:56 436.925 FM
ITAMSAT 1 23 May 15:37:37 15:41:56 27° 266° (W) 15:46:18 435.822 SSB
PCSat 23 May 15:38:00 15:42:23 24° 41° (NE) 15:46:45 145.825 MHz
RS-15 23 May 15:48:54 15:58:37 30° 104° (ESE) 16:08:01 29.354 - 29.394 USB, Beacon 29.352 USB
Gurwin Techsat 1B 23 May 15:58:10 16:03:25 68° 73° (ENE) 16:08:43 435.225 FM
Uosat F 23 May 16:10:33 16:15:32 76° 257° (WSW) 16:20:34 435.120 FM
Sapphire 23 May 16:10:45 16:15:46 36° 48° (NE) 16:20:45 437.095 MHz 1200 baud AX-25 AFSK
AO-Echo 23 May 16:18:19 16:22:30 29° 265° (W) 16:26:38 ?
Uribyol 2 23 May 16:22:17 16:23:24 11° 274° (W) 16:24:32 436.500 FM
SO-50 23 May 16:38:11 16:41:54 24° 39° (NE) 16:45:33 436.795 FM
Saudisat 1A 23 May 16:42:59 16:43:58 11° 253° (WSW) 16:44:57 436.775 MHz
AO-7 23 May 17:07:56 17:16:11 76° 68° (ENE) 17:24:31 29.400 - 29.500 MHz
TMSAT-1 23 May 17:16:15 17:21:09 38° 263° (W) 17:26:05 436.925 FM
PCSat 23 May 17:20:55 17:26:20 70° 242° (WSW) 17:31:43 145.825 MHz
Gurwin Techsat 1B 23 May 17:40:32 17:43:55 17° 270° (W) 17:47:19 435.225 FM
Sapphire 23 May 17:54:12 17:59:15 40° 247° (WSW) 18:04:16 437.095 MHz 1200 baud AX-25 AFSK
RS-15 23 May 17:57:48 18:09:52 84° 306° (NW) 18:21:26 29.354 - 29.394 USB, Beacon 29.352 USB
JAS-1B 23 May 18:08:57 18:13:47 17° 52° (NE) 18:18:14 435.800 - 435.900 CW/SSB
SO-50 23 May 18:18:23 18:22:52 58° 239° (WSW) 18:27:15 436.795 FM
Hamsat 23 May 18:49:41 18:53:10 26° 67° (ENE) 18:56:42 145.90 MHz
AO-7 23 May 19:03:10 19:09:45 26° 268° (W) 19:16:23 29.400 - 29.500 MHz
STRAND 1 23 May 19:15:06 19:19:39 31° 96° (E) 19:24:10 ?
UOSAT-12 23 May 19:34:28 19:38:26 28° 42° (NE) 19:42:23 437.025 FM, 437.400 FM
JAS-1B 23 May 19:54:19 20:03:18 68° 71° (ENE) 20:10:54 435.800 - 435.900 CW/SSB
JAS-2 23 May 19:55:22 19:58:06 12° 46° (NE) 20:00:49 435.800 - 435.900 CW/SSB, 435.910 FM
HO-68 23 May 20:08:15 20:12:59 20° 51° (NE) 20:17:44 435.675 MHz FM
RS-15 23 May 20:13:36 20:24:09 36° 334° (NNW) 20:34:19 29.354 - 29.394 USB, Beacon 29.352 USB
Hamsat 23 May 20:25:24 20:29:09 31° 264° (W) 20:32:57 145.90 MHz
SO-67 23 May 20:31:26 20:34:59 70° 258° (WSW) 20:38:35 435.3500 MHz FM
Oscar 11 23 May 20:53:29 20:53:56 10° 58° (ENE) 20:54:23 145.825 FM, Beacon 2401.500 USB
STRAND 1 23 May 20:54:12 20:58:53 37° 293° (WNW) 21:03:34 ?
UOSAT-12 23 May 21:14:23 21:18:49 47° 241° (WSW) 21:23:13 437.025 FM, 437.400 FM
JAS-2 23 May 21:33:58 21:41:21 49° 66° (ENE) 21:48:44 435.800 - 435.900 CW/SSB, 435.910 FM
OPAL 23 May 21:40:07 21:44:05 23° 60° (ENE) 21:48:02 ?
JAS-1B 23 May 21:46:28 21:54:09 30° 266° (W) 22:00:58 435.800 - 435.900 CW/SSB
HO-68 23 May 21:52:33 21:59:41 83° 71° (ENE) 22:06:52 435.675 MHz FM
Oscar 11 23 May 22:25:07 22:29:26 85° 76° (ENE) 22:33:48 145.825 FM, Beacon 2401.500 USB
RS-15 23 May 22:31:25 22:40:55 28° 8° (N) 22:50:06 29.354 - 29.394 USB, Beacon 29.352 USB
OPAL 23 May 23:17:32 23:22:38 55° 257° (WSW) 23:27:42 ?
JAS-2 23 May 23:19:06 23:26:22 42° 265° (W) 23:33:44 435.800 - 435.900 CW/SSB, 435.910 FM
KITSAT 1 23 May 23:23:34 23:31:21 55° 115° (ESE) 23:39:12 435.175 FM
HO-68 23 May 23:43:18 23:48:12 20° 270° (W) 23:53:08 435.675 MHz FM

Developed and maintained by Chris Peat, Heavens-Above GmbH. Please read the updated FAQ before sending e-mail. Imprint. DLR
